Home > Time Zones > World Clock > Weather > Iran > Ahvaz > Past weeks

Flag for Iran Weather past 2 weeks in Ahvaz, Iran

Now
104 °F

Clear.


Feels Like: 105 °F
Forecast: 87 / 110 °F
Wind: 5 mph from North

Location: Ahwaz

Current Time: Sep 3, 2015 at 8:28:36 PM

Latest Report: Sep 3, 2015 at 7:55 PM


Visibility: 4 mi

Pressure: 29.47 "Hg

Humidity: 24%

Dew point: 61 °F

Location of AhvazLocation

Historic Weather in Ahvaz — Graph

°F

Ahvaz temperature yesterday

Maximum temperature yesterday: 108 °F (at 1:30 PM)
Minimum temperature yesterday: 84 °F (at 7:30 AM)
Average temperature yesterday: 99 °F

Past Weeks' High & Low Weather Summary

 TemperatureHumidityPressure
High118 °F (Aug 20, 4:00 PM)89% (Aug 20, 2:30 AM)29.65 "Hg (Aug 20, 2:30 AM)
Low82 °F (Aug 26, 7:30 AM)10% (Aug 27, 4:00 PM)29.45 "Hg (Aug 21, 7:00 PM)
Average103 °F29%29.54 "Hg
* Reported Aug 19 6:30 PM — Sep 3 7:00 PM, Ahvaz, Weather by CustomWeather, © 2015

Note: Actual official high and low records may vary slightly from our data, if they occured in-between our weather recording intervals... More about our weather records

Advertising

Ahvaz weather history for previous 24 hours

 ConditionsComfort  
Time TempWeatherWind HumidityBarometerVisibility
7:00 PM
Thu, Sep 3
108 °FClear.2 mph19%29.47 "Hg4 mi
6:30 PM111 °FClear.2 mph20%29.47 "Hg4 mi
6:00 PM113 °FClear.2 mph16%29.47 "Hg4 mi
5:30 PM113 °FClear.No wind16%29.47 "Hg4 mi
4:55 PM113 °FClear.No wind16%29.47 "Hg4 mi
4:30 PM115 °FClear.No wind15%29.47 "Hg4 mi
4:00 PM115 °FClear.No wind14%29.50 "Hg4 mi
3:30 PM113 °FClear.No wind16%29.50 "Hg4 mi
3:00 PM113 °FClear.5 mph16%29.50 "Hg4 mi
2:30 PM113 °FClear.2 mph15%29.50 "Hg4 mi
2:00 PM109 °FClear.5 mph19%29.53 "Hg4 mi
1:30 PM109 °FClear.2 mph19%29.53 "Hg4 mi
1:00 PM108 °FClear.5 mph18%29.53 "Hg4 mi
12:30 PM108 °FClear.5 mph19%29.53 "Hg4 mi
12:00 PM104 °FClear.No wind21%29.53 "Hg5 mi
11:30 AM102 °FClear.2 mph21%29.53 "Hg5 mi
11:00 AM99 °FClear.5 mph25%29.56 "Hg5 mi
10:30 AM95 °FClear.5 mph26%29.56 "Hg5 mi
10:00 AM95 °FClear.2 mph26%29.53 "Hg5 mi
9:30 AM91 °FClear.2 mph28%29.53 "Hg5 mi
9:00 AM90 °FClear.5 mph29%29.53 "Hg5 mi
8:30 AM88 °FClear.5 mph31%29.53 "Hg5 mi
8:00 AM88 °FClear.7 mph29%29.53 "Hg5 mi
7:30 AM86 °FClear.5 mph33%29.53 "Hg5 mi
6:30 AM88 °FClear.2 mph33%29.53 "Hg4 mi
5:30 AM90 °FClear.5 mph29%29.53 "Hg4 mi
4:30 AM91 °FClear.5 mph28%29.53 "Hg4 mi
3:30 AM91 °FDuststorm.2 mph30%29.53 "Hg2 mi
2:30 AM91 °FDuststorm.5 mph30%29.53 "Hg2 mi
1:30 AM93 °FDuststorm.2 mph28%29.53 "Hg2 mi
1:00 AM95 °FDuststorm.2 mph28%29.56 "Hg1 mi
12:30 AM95 °FDuststorm.No wind28%29.56 "Hg1 mi
12:00 AM97 °FDuststorm.5 mph23%29.56 "Hg1 mi
11:30 PM
Wed, Sep 2
97 °FDuststorm.5 mph23%29.56 "Hg1 mi
11:00 PM99 °FDuststorm.5 mph22%29.56 "Hg1 mi
10:30 PM95 °FDuststorm.5 mph25%29.56 "Hg1 mi
10:00 PM97 °FDuststorm.2 mph32%29.53 "Hg1 mi
9:30 PM97 °FDuststorm.No wind30%29.53 "Hg1 mi
9:00 PM97 °FDuststorm.No wind34%29.53 "Hg2 mi
8:00 PM99 °FDuststorm.No wind29%29.53 "Hg2 mi
Weather by CustomWeather, © 2015

See weather overviewHow to use our weather pages